TimeCST,TemperatureF,Dew PointF,Humidity,Sea Level PressureIn,VisibilityMPH,Wind Direction,Wind SpeedMPH,Gust SpeedMPH,PrecipitationIn,Events,Conditions,WindDirDegrees,DateUTC
12:53 AM,12.0,7.0,80,30.40,10.0,NNE,4.6,-,N/A,,Clear,20,2013-02-21 06:53:00
1:53 AM,14.0,9.0,80,30.39,10.0,NNE,6.9,-,N/A,,Clear,30,2013-02-21 07:53:00
2:53 AM,10.9,7.0,84,30.40,10.0,NNE,4.6,-,N/A,,Clear,20,2013-02-21 08:53:00
3:53 AM,10.9,8.1,88,30.40,10.0,NE,5.8,-,N/A,,Clear,40,2013-02-21 09:53:00
4:53 AM,10.9,9.0,92,30.34,10.0,NE,12.7,-,N/A,,Clear,40,2013-02-21 10:53:00
5:53 AM,12.9,7.0,77,30.39,10.0,ENE,6.9,-,N/A,,Clear,70,2013-02-21 11:53:00
6:53 AM,12.0,7.0,80,30.38,10.0,NE,8.1,-,N/A,,Clear,40,2013-02-21 12:53:00
7:53 AM,12.9,8.1,81,30.37,10.0,NE,13.8,-,N/A,,Clear,50,2013-02-21 13:53:00
8:53 AM,16.0,10.9,81,30.39,10.0,East,6.9,-,N/A,,Clear,90,2013-02-21 14:53:00
9:53 AM,18.0,12.9,81,30.38,10.0,East,9.2,-,N/A,,Mostly Cloudy,100,2013-02-21 15:53:00
10:53 AM,19.9,15.1,81,30.35,10.0,ENE,9.2,-,N/A,,Overcast,60,2013-02-21 16:53:00
11:13 AM,19.4,15.8,86,30.30,10.0,ENE,11.5,-,N/A,,Overcast,70,2013-02-21 17:13:00
11:53 AM,21.0,16.0,81,30.32,10.0,ENE,12.7,-,N/A,,Overcast,60,2013-02-21 17:53:00
12:53 PM,21.9,16.0,78,30.29,10.0,ENE,12.7,20.7,N/A,,Overcast,70,2013-02-21 18:53:00
1:53 PM,21.0,17.1,85,30.26,10.0,ENE,11.5,-,N/A,,Overcast,60,2013-02-21 19:53:00
2:53 PM,21.9,17.1,82,30.24,10.0,NE,12.7,-,N/A,,Overcast,50,2013-02-21 20:53:00
3:53 PM,21.9,18.0,85,30.21,10.0,ENE,13.8,-,N/A,,Overcast,60,2013-02-21 21:53:00
4:30 PM,21.2,19.4,93,30.09,10.0,NE,17.3,28.8,N/A,,Overcast,50,2013-02-21 22:30:00
4:53 PM,21.9,19.9,92,30.15,8.0,ENE,15.0,25.3,N/A,,Overcast,60,2013-02-21 22:53:00
5:53 PM,21.9,21.0,96,30.15,8.0,ENE,13.8,24.2,N/A,,Overcast,70,2013-02-21 23:53:00
6:19 PM,21.2,21.2,100,30.05,5.0,ENE,17.3,24.2,N/A,,Overcast,70,2013-02-22 00:19:00
6:53 PM,21.9,21.9,100,30.11,2.5,ENE,19.6,26.5,N/A,,Overcast,70,2013-02-22 00:53:00
7:24 PM,21.2,21.2,100,30.02,3.0,ENE,21.9,33.4,N/A,,Overcast,70,2013-02-22 01:24:00
7:53 PM,23.0,21.9,96,30.05,5.0,ENE,20.7,31.1,N/A,,Overcast,70,2013-02-22 01:53:00
8:33 PM,24.8,21.2,86,29.99,7.0,East,20.7,27.6,N/A,,Overcast,80,2013-02-22 02:33:00
8:53 PM,24.1,21.9,91,30.04,9.0,East,19.6,26.5,N/A,,Overcast,80,2013-02-22 02:53:00
9:41 PM,24.8,23.0,93,29.97,1.8,East,20.7,26.5,0.00,Snow,Light Snow,80,2013-02-22 03:41:00
9:53 PM,24.1,23.0,96,30.00,1.0,ENE,19.6,26.5,0.00,Snow,Light Snow,70,2013-02-22 03:53:00
9:57 PM,24.8,23.0,93,29.94,0.8,ENE,19.6,27.6,0.00,Snow,Light Snow,60,2013-02-22 03:57:00
10:53 PM,24.1,23.0,96,29.96,0.5,ENE,16.1,25.3,0.04,Fog-Snow,Snow,70,2013-02-22 04:53:00
11:03 PM,24.8,23.0,93,29.90,0.2,ENE,19.6,-,0.01,Fog-Snow,Heavy Snow,70,2013-02-22 05:03:00
11:13 PM,24.8,23.0,93,29.89,0.5,ENE,19.6,-,0.02,Fog-Snow,Snow,70,2013-02-22 05:13:00
11:23 PM,24.8,23.0,93,29.90,0.5,East,13.8,-,0.03,Fog-Snow,Light Snow,80,2013-02-22 05:23:00
11:53 PM,25.0,24.1,96,29.95,0.5,ENE,13.8,-,0.08,Fog-Snow,Snow,70,2013-02-22 05:53:00